"Time","Value","Approval","myLocation"
"2023-05-05 00:00",1.80689820956158,"Approved","OW510"
"2023-05-05 01:00",1.81389562331288,"Approved","OW510"
"2023-05-05 02:00",1.81589303706418,"Approved","OW510"
"2023-05-05 03:00",1.81689045081548,"Approved","OW510"
"2023-05-05 04:00",1.81588786456678,"Approved","OW510"
"2023-05-05 05:00",1.81488527831808,"Approved","OW510"
"2023-05-05 06:00",1.81488269206938,"Approved","OW510"
"2023-05-05 07:00",1.81888010582068,"Approved","OW510"
"2023-05-05 08:00",1.81887751957198,"Approved","OW510"
"2023-05-05 09:00",1.83087493332328,"Approved","OW510"
"2023-05-05 10:00",1.82587234707458,"Approved","OW510"
"2023-05-05 11:00",1.83086976082588,"Approved","OW510"
"2023-05-05 12:00",1.83386717457718,"Approved","OW510"
"2023-05-05 13:00",1.83686458832848,"Approved","OW510"
"2023-05-05 14:00",1.83386200207978,"Approved","OW510"
"2023-05-05 15:00",1.83085941583107,"Approved","OW510"
"2023-05-05 16:00",1.83285682958237,"Approved","OW510"
"2023-05-05 17:00",1.83385424333367,"Approved","OW510"
"2023-05-05 18:00",1.83985165708497,"Approved","OW510"
"2023-05-05 19:00",1.85884907083627,"Approved","OW510"
"2023-05-05 20:00",1.87384648458757,"Approved","OW510"
"2023-05-05 21:00",1.86584389833887,"Approved","OW510"
"2023-05-05 22:00",1.86484131209017,"Approved","OW510"
"2023-05-05 23:00",1.86983872584147,"Approved","OW510"
"2023-05-06 00:00",1.87383613959277,"Approved","OW510"
"2023-05-06 01:00",1.87883355334407,"Approved","OW510"
"2023-05-06 02:00",1.87683096709537,"Approved","OW510"
"2023-05-06 03:00",1.89182838084667,"Approved","OW510"
"2023-05-06 04:00",1.86982579459797,"Approved","OW510"
"2023-05-06 05:00",1.86982320834927,"Approved","OW510"
"2023-05-06 06:00",1.86882062210057,"Approved","OW510"
"2023-05-06 07:00",1.86581803585187,"Approved","OW510"
"2023-05-06 08:00",1.86481544960317,"Approved","OW510"
"2023-05-06 09:00",1.85981286335447,"Approved","OW510"
"2023-05-06 10:00",1.85781027710577,"Approved","OW510"
"2023-05-06 11:00",1.85980769085707,"Approved","OW510"
"2023-05-06 12:00",1.85780510460837,"Approved","OW510"
"2023-05-06 13:00",1.86180251835967,"Approved","OW510"
"2023-05-06 14:00",1.86279993211097,"Approved","OW510"
"2023-05-06 15:00",1.86379734586227,"Approved","OW510"
"2023-05-06 16:00",1.86279475961357,"Approved","OW510"
"2023-05-06 17:00",1.86479217336487,"Approved","OW510"
"2023-05-06 18:00",1.86578958711617,"Approved","OW510"
"2023-05-06 19:00",1.86478700086747,"Approved","OW510"
"2023-05-06 20:00",1.86378441461877,"Approved","OW510"
"2023-05-06 21:00",1.86878182837007,"Approved","OW510"
"2023-05-06 22:00",1.86777924212137,"Approved","OW510"
"2023-05-06 23:00",1.86977665587267,"Approved","OW510"
"2023-05-07 00:00",1.87277406962397,"Approved","OW510"
"2023-05-07 01:00",1.87177148337527,"Approved","OW510"
"2023-05-07 02:00",1.87376889712657,"Approved","OW510"
"2023-05-07 03:00",1.87776631087787,"Approved","OW510"
"2023-05-07 04:00",1.87476372462917,"Approved","OW510"
"2023-05-07 05:00",1.87876113838047,"Approved","OW510"
"2023-05-07 06:00",1.88175855213177,"Approved","OW510"
"2023-05-07 07:00",1.88275596588307,"Approved","OW510"
"2023-05-07 08:00",1.88275337963437,"Approved","OW510"
"2023-05-07 09:00",1.88375079338567,"Approved","OW510"
"2023-05-07 10:00",1.88674820713697,"Approved","OW510"
"2023-05-07 11:00",1.88574562088827,"Approved","OW510"
"2023-05-07 12:00",1.88674303463957,"Approved","OW510"
"2023-05-07 13:00",1.89174044839087,"Approved","OW510"
"2023-05-07 14:00",1.89373786214217,"Approved","OW510"
"2023-05-07 15:00",1.89473527589347,"Approved","OW510"
"2023-05-07 16:00",1.89573268964477,"Approved","OW510"
"2023-05-07 17:00",1.89773010339607,"Approved","OW510"
"2023-05-07 18:00",1.90172751714737,"Approved","OW510"
"2023-05-07 19:00",1.90272493089867,"Approved","OW510"
"2023-05-07 20:00",1.90472234464997,"Approved","OW510"
"2023-05-07 21:00",1.90771975840127,"Approved","OW510"
"2023-05-07 22:00",1.90671717215257,"Approved","OW510"
"2023-05-07 23:00",1.90871458590387,"Approved","OW510"
"2023-05-08 00:00",1.91171199965517,"Approved","OW510"
"2023-05-08 01:00",1.91170941340647,"Approved","OW510"
"2023-05-08 02:00",1.91570682715777,"Approved","OW510"
"2023-05-08 03:00",1.91670424090907,"Approved","OW510"
"2023-05-08 04:00",1.91670165466037,"Approved","OW510"
"2023-05-08 05:00",1.91869906841167,"Approved","OW510"
"2023-05-08 06:00",1.92069648216297,"Approved","OW510"
"2023-05-08 07:00",1.92169389591427,"Approved","OW510"
"2023-05-08 08:00",1.92469130966557,"Approved","OW510"
"2023-05-08 09:00",1.92568872341687,"Approved","OW510"
"2023-05-08 10:00",1.92868613716817,"Approved","OW510"
"2023-05-08 11:00",1.92968355091947,"Approved","OW510"
"2023-05-08 12:00",1.93368096467077,"Approved","OW510"
"2023-05-08 13:00",1.93567837842207,"Approved","OW510"
"2023-05-08 14:00",1.93567579217336,"Approved","OW510"
"2023-05-08 15:00",1.93467320592466,"Approved","OW510"
"2023-05-08 16:00",1.93667061967596,"Approved","OW510"
"2023-05-08 17:00",1.93866803342726,"Approved","OW510"
"2023-05-08 18:00",1.94066544717856,"Approved","OW510"
"2023-05-08 19:00",1.94166286092986,"Approved","OW510"
"2023-05-08 20:00",1.94466027468116,"Approved","OW510"
"2023-05-08 21:00",1.94965768843246,"Approved","OW510"
"2023-05-08 22:00",1.95165510218376,"Approved","OW510"
"2023-05-08 23:00",1.95165251593506,"Approved","OW510"
"2023-05-09 00:00",1.95664992968636,"Approved","OW510"
"2023-05-09 01:00",1.96364734343766,"Approved","OW510"
"2023-05-09 02:00",1.96664475718896,"Approved","OW510"
"2023-05-09 03:00",1.96264217094026,"Approved","OW510"
"2023-05-09 04:00",1.96263958469156,"Approved","OW510"
"2023-05-09 05:00",1.96363699844286,"Approved","OW510"
"2023-05-09 06:00",1.97063441219416,"Approved","OW510"
"2023-05-09 07:00",1.96763182594546,"Approved","OW510"
"2023-05-09 08:00",1.96962923969676,"Approved","OW510"
"2023-05-09 09:00",1.97262665344806,"Approved","OW510"
"2023-05-09 10:00",1.97662406719936,"Approved","OW510"
"2023-05-09 11:00",1.97562148095066,"Approved","OW510"
"2023-05-09 12:00",1.97861889470196,"Approved","OW510"
"2023-05-09 13:00",1.98161630845326,"Approved","OW510"
"2023-05-09 14:00",1.98261372220456,"Approved","OW510"
"2023-05-09 15:00",1.98261113595586,"Approved","OW510"
"2023-05-09 16:00",1.98360854970716,"Approved","OW510"
"2023-05-09 17:00",1.98460596345846,"Approved","OW510"
"2023-05-09 18:00",1.98560337720976,"Approved","OW510"
"2023-05-09 19:00",1.98560079096106,"Approved","OW510"
"2023-05-09 20:00",1.98859820471236,"Approved","OW510"
"2023-05-09 21:00",1.99559561846366,"Approved","OW510"
"2023-05-09 22:00",1.99659303221496,"Approved","OW510"
"2023-05-09 23:00",1.99759044596626,"Approved","OW510"
"2023-05-10 00:00",2.00058785971756,"Approved","OW510"
"2023-05-10 01:00",2.00458527346886,"Approved","OW510"
"2023-05-10 02:00",2.00958268722016,"Approved","OW510"
"2023-05-10 03:00",2.01358010097146,"Approved","OW510"
"2023-05-10 04:00",2.01257751472276,"Approved","OW510"
"2023-05-10 05:00",2.01157492847406,"Approved","OW510"
"2023-05-10 06:00",2.01457234222536,"Approved","OW510"
"2023-05-10 07:00",2.01656975597666,"Approved","OW510"
"2023-05-10 08:00",2.01856716972796,"Approved","OW510"
"2023-05-10 09:00",2.01856458347926,"Approved","OW510"
"2023-05-10 10:00",2.02156199723056,"Approved","OW510"
"2023-05-10 11:00",2.02555941098186,"Approved","OW510"
"2023-05-10 12:00",2.02655682473316,"Approved","OW510"
"2023-05-10 13:00",2.02855423848446,"Approved","OW510"
"2023-05-10 14:00",2.02655165223576,"Approved","OW510"
"2023-05-10 15:00",2.02654906598706,"Approved","OW510"
"2023-05-10 16:00",2.02554647973836,"Approved","OW510"
"2023-05-10 17:00",2.02754389348966,"Approved","OW510"
"2023-05-10 18:00",2.02854130724096,"Approved","OW510"
"2023-05-10 19:00",2.03353872099226,"Approved","OW510"
"2023-05-10 20:00",2.03453613474356,"Approved","OW510"
"2023-05-10 21:00",2.04053354849486,"Approved","OW510"
"2023-05-10 22:00",2.03753096224616,"Approved","OW510"
"2023-05-10 23:00",2.04752837599746,"Approved","OW510"
"2023-05-11 00:00",2.05252578974876,"Approved","OW510"
"2023-05-11 01:00",2.05752320350006,"Approved","OW510"
"2023-05-11 02:00",2.06552061725136,"Approved","OW510"
"2023-05-11 03:00",2.07251803100266,"Approved","OW510"
"2023-05-11 04:00",2.06851544475396,"Approved","OW510"
"2023-05-11 05:00",2.06851285850526,"Approved","OW510"
"2023-05-11 06:00",2.07351027225656,"Approved","OW510"
"2023-05-11 07:00",2.07250768600786,"Approved","OW510"
"2023-05-11 08:00",2.07550509975916,"Approved","OW510"
"2023-05-11 09:00",2.07650251351046,"Approved","OW510"
"2023-05-11 10:00",2.07749992726176,"Approved","OW510"
"2023-05-11 11:00",2.07849734101306,"Approved","OW510"
"2023-05-11 12:00",2.08549475476435,"Approved","OW510"
"2023-05-11 13:00",2.08749216851565,"Approved","OW510"
"2023-05-11 14:00",2.08548958226695,"Approved","OW510"
"2023-05-11 15:00",2.08648699601825,"Approved","OW510"
"2023-05-11 16:00",2.08548440976955,"Approved","OW510"
"2023-05-11 17:00",2.08848182352085,"Approved","OW510"
"2023-05-11 18:00",2.08847923727215,"Approved","OW510"
"2023-05-11 19:00",2.09047665102345,"Approved","OW510"
"2023-05-11 20:00",2.09247406477475,"Approved","OW510"
"2023-05-11 21:00",2.09547147852605,"Approved","OW510"
"2023-05-11 22:00",2.10046889227735,"Approved","OW510"
"2023-05-11 23:00",2.10346630602865,"Approved","OW510"
"2023-05-12 00:00",2.10746371977995,"Approved","OW510"
"2023-05-12 01:00",2.11346113353125,"Approved","OW510"
"2023-05-12 02:00",2.11745854728255,"Approved","OW510"
"2023-05-12 03:00",2.12445596103385,"Approved","OW510"
"2023-05-12 04:00",2.12645337478515,"Approved","OW510"
"2023-05-12 05:00",2.13245078853645,"Approved","OW510"
"2023-05-12 06:00",2.13244820228775,"Approved","OW510"
"2023-05-12 07:00",2.13844561603905,"Approved","OW510"
"2023-05-12 08:00",2.13844302979035,"Approved","OW510"
"2023-05-12 09:00",2.13944044354165,"Approved","OW510"
"2023-05-12 10:00",2.14543785729295,"Approved","OW510"
"2023-05-12 11:00",2.14843527104425,"Approved","OW510"
"2023-05-12 12:00",2.15243268479555,"Approved","OW510"
"2023-05-12 13:00",2.15343009854685,"Approved","OW510"
"2023-05-12 14:00",2.15442751229815,"Approved","OW510"
"2023-05-12 15:00",2.15542492604945,"Approved","OW510"
"2023-05-12 16:00",2.15642233980075,"Approved","OW510"
"2023-05-12 17:00",2.15641975355205,"Approved","OW510"
"2023-05-12 18:00",2.15741716730335,"Approved","OW510"
"2023-05-12 19:00",2.16041458105465,"Approved","OW510"
"2023-05-12 20:00",2.16341199480595,"Approved","OW510"
"2023-05-12 21:00",2.16640940855725,"Approved","OW510"
"2023-05-12 22:00",2.16940682230855,"Approved","OW510"
"2023-05-12 23:00",2.17340423605985,"Approved","OW510"
"2023-05-13 00:00",2.17740164981115,"Approved","OW510"
"2023-05-13 01:00",2.18339906356245,"Approved","OW510"
"2023-05-13 02:00",2.18739647731375,"Approved","OW510"
"2023-05-13 03:00",2.19439389106505,"Approved","OW510"
"2023-05-13 04:00",2.19939130481635,"Approved","OW510"
"2023-05-13 05:00",2.20038871856765,"Approved","OW510"
"2023-05-13 06:00",2.20338613231895,"Approved","OW510"
"2023-05-13 07:00",2.20438354607025,"Approved","OW510"
"2023-05-13 08:00",2.20738095982155,"Approved","OW510"
"2023-05-13 09:00",2.20837837357285,"Approved","OW510"
"2023-05-13 10:00",2.21237578732415,"Approved","OW510"
"2023-05-13 11:00",2.21437320107545,"Approved","OW510"
"2023-05-13 12:00",2.21737061482675,"Approved","OW510"
"2023-05-13 13:00",2.21836802857805,"Approved","OW510"
"2023-05-13 14:00",2.21836544232935,"Approved","OW510"
"2023-05-13 15:00",2.21836285608065,"Approved","OW510"
"2023-05-13 16:00",2.21836026983195,"Approved","OW510"
"2023-05-13 17:00",2.21835768358325,"Approved","OW510"
"2023-05-13 18:00",2.21635509733455,"Approved","OW510"
"2023-05-13 19:00",2.22135251108585,"Approved","OW510"
"2023-05-13 20:00",2.21734992483715,"Approved","OW510"
"2023-05-13 21:00",2.22234733858845,"Approved","OW510"
"2023-05-13 22:00",2.22134475233975,"Approved","OW510"
"2023-05-13 23:00",2.22634216609105,"Approved","OW510"
"2023-05-14 00:00",2.22933957984235,"Approved","OW510"
"2023-05-14 01:00",2.23533699359365,"Approved","OW510"
"2023-05-14 02:00",2.24133440734495,"Approved","OW510"
"2023-05-14 03:00",2.24833182109625,"Approved","OW510"
"2023-05-14 04:00",2.24832923484755,"Approved","OW510"
"2023-05-14 05:00",2.25432664859885,"Approved","OW510"
"2023-05-14 06:00",2.25732406235015,"Approved","OW510"
"2023-05-14 07:00",2.25932147610145,"Approved","OW510"
"2023-05-14 08:00",2.25531888985275,"Approved","OW510"
"2023-05-14 09:00",2.25931630360405,"Approved","OW510"
"2023-05-14 10:00",2.25931371735535,"Approved","OW510"
"2023-05-14 11:00",2.26131113110665,"Approved","OW510"
"2023-05-14 12:00",2.26230854485794,"Approved","OW510"
"2023-05-14 13:00",2.26630595860924,"Approved","OW510"
"2023-05-14 14:00",2.26730337236054,"Approved","OW510"
"2023-05-14 15:00",2.26330078611184,"Approved","OW510"
"2023-05-14 16:00",2.26629819986314,"Approved","OW510"
"2023-05-14 17:00",2.26329561361444,"Approved","OW510"
"2023-05-14 18:00",2.26829302736574,"Approved","OW510"
"2023-05-14 19:00",2.26529044111704,"Approved","OW510"
"2023-05-14 20:00",2.27128785486834,"Approved","OW510"
"2023-05-14 21:00",2.27128526861964,"Approved","OW510"
"2023-05-14 22:00",2.27528268237094,"Approved","OW510"
"2023-05-14 23:00",2.27728009612224,"Approved","OW510"
"2023-05-15 00:00",2.28227750987354,"Approved","OW510"
"2023-05-15 01:00",2.28327492362484,"Approved","OW510"
"2023-05-15 02:00",2.29027233737614,"Approved","OW510"
"2023-05-15 03:00",2.29526975112744,"Approved","OW510"
"2023-05-15 04:00",2.30026716487874,"Approved","OW510"
"2023-05-15 05:00",2.30426457863004,"Approved","OW510"
"2023-05-15 06:00",2.30526199238134,"Approved","OW510"
"2023-05-15 07:00",2.30725940613264,"Approved","OW510"
"2023-05-15 08:00",2.31025681988394,"Approved","OW510"
"2023-05-15 09:00",2.31225423363524,"Approved","OW510"
"2023-05-15 10:00",2.31425164738654,"Approved","OW510"
"2023-05-15 11:00",2.31524906113784,"Approved","OW510"
"2023-05-15 12:00",2.32024647488914,"Approved","OW510"
"2023-05-15 13:00",2.32024388864044,"Approved","OW510"
"2023-05-15 14:00",2.32224130239174,"Approved","OW510"
"2023-05-15 15:00",2.32223871614304,"Approved","OW510"
"2023-05-15 16:00",2.32123612989434,"Approved","OW510"
"2023-05-15 17:00",2.32423354364564,"Approved","OW510"
"2023-05-15 18:00",2.32223095739694,"Approved","OW510"
"2023-05-15 19:00",2.32722837114824,"Approved","OW510"
"2023-05-15 20:00",2.33022578489954,"Approved","OW510"
"2023-05-15 21:00",2.32922319865084,"Approved","OW510"
"2023-05-15 22:00",2.32922061240214,"Approved","OW510"
"2023-05-15 23:00",2.33121802615344,"Approved","OW510"
"2023-05-16 00:00",2.33621543990474,"Approved","OW510"
"2023-05-16 01:00",2.34321285365604,"Approved","OW510"
"2023-05-16 02:00",2.35021026740734,"Approved","OW510"
"2023-05-16 03:00",2.35520768115864,"Approved","OW510"
"2023-05-16 04:00",2.35920509490994,"Approved","OW510"
"2023-05-16 05:00",2.36320250866124,"Approved","OW510"
"2023-05-16 06:00",2.36719992241254,"Approved","OW510"
"2023-05-16 07:00",2.36919733616384,"Approved","OW510"
"2023-05-16 08:00",2.37419474991514,"Approved","OW510"
"2023-05-16 09:00",2.37319216366644,"Approved","OW510"
"2023-05-16 10:00",2.37518957741774,"Approved","OW510"
"2023-05-16 11:00",2.37718699116904,"Approved","OW510"
"2023-05-16 12:00",2.38318440492034,"Approved","OW510"
"2023-05-16 13:00",2.38418181867164,"Approved","OW510"
"2023-05-16 14:00",2.38317923242294,"Approved","OW510"
"2023-05-16 15:00",2.38517664617424,"Approved","OW510"
"2023-05-16 16:00",2.38617405992554,"Approved","OW510"
"2023-05-16 17:00",2.38817147367684,"Approved","OW510"
"2023-05-16 18:00",2.38816888742814,"Approved","OW510"
"2023-05-16 19:00",2.38916630117944,"Approved","OW510"
"2023-05-16 20:00",2.38916371493074,"Approved","OW510"
"2023-05-16 21:00",2.38916112868204,"Approved","OW510"
"2023-05-16 22:00",2.39115854243334,"Approved","OW510"
"2023-05-16 23:00",2.39715595618464,"Approved","OW510"
"2023-05-17 00:00",2.39915336993594,"Approved","OW510"
"2023-05-17 01:00",2.40615078368724,"Approved","OW510"
"2023-05-17 02:00",2.41314819743854,"Approved","OW510"
"2023-05-17 03:00",2.41214561118984,"Approved","OW510"
"2023-05-17 04:00",2.41714302494114,"Approved","OW510"
"2023-05-17 05:00",2.41914043869244,"Approved","OW510"
"2023-05-17 06:00",2.42013785244374,"Approved","OW510"
"2023-05-17 07:00",2.42413526619504,"Approved","OW510"
"2023-05-17 08:00",2.42613267994634,"Approved","OW510"
"2023-05-17 09:00",2.42513009369764,"Approved","OW510"
"2023-05-17 10:00",2.43012750744894,"Approved","OW510"
"2023-05-17 11:00",2.43212492120023,"Approved","OW510"
"2023-05-17 12:00",2.43412233495153,"Approved","OW510"
"2023-05-17 13:00",2.43911974870283,"Approved","OW510"
"2023-05-17 14:00",2.43911716245413,"Approved","OW510"
"2023-05-17 15:00",2.43811457620543,"Approved","OW510"
"2023-05-17 16:00",2.44111198995673,"Approved","OW510"
"2023-05-17 17:00",2.44210940370803,"Approved","OW510"
"2023-05-17 18:00",2.44210681745933,"Approved","OW510"
"2023-05-17 19:00",2.44410423121063,"Approved","OW510"
"2023-05-17 20:00",2.44310164496193,"Approved","OW510"
"2023-05-17 21:00",2.44809905871323,"Approved","OW510"
"2023-05-17 22:00",2.44809647246453,"Approved","OW510"
"2023-05-17 23:00",2.45309388621583,"Approved","OW510"
"2023-05-18 00:00",2.45409129996713,"Approved","OW510"
"2023-05-18 01:00",2.45708871371843,"Approved","OW510"
"2023-05-18 02:00",2.46308612746973,"Approved","OW510"
"2023-05-18 03:00",2.46508354122103,"Approved","OW510"
"2023-05-18 04:00",2.47108095497233,"Approved","OW510"
"2023-05-18 05:00",2.47407836872363,"Approved","OW510"
"2023-05-18 06:00",2.47807578247493,"Approved","OW510"
"2023-05-18 07:00",2.47807319622623,"Approved","OW510"
"2023-05-18 08:00",2.47707060997753,"Approved","OW510"
"2023-05-18 09:00",2.48006802372883,"Approved","OW510"
"2023-05-18 10:00",2.48306543748013,"Approved","OW510"
"2023-05-18 11:00",2.48506285123143,"Approved","OW510"
"2023-05-18 12:00",2.48706026498273,"Approved","OW510"
"2023-05-18 13:00",2.48905767873403,"Approved","OW510"
"2023-05-18 14:00",2.49105509248533,"Approved","OW510"
"2023-05-18 15:00",2.49205250623663,"Approved","OW510"
"2023-05-18 16:00",2.49004991998793,"Approved","OW510"
"2023-05-18 17:00",2.49204733373923,"Approved","OW510"
"2023-05-18 18:00",2.49404474749053,"Approved","OW510"
"2023-05-18 19:00",2.49304216124183,"Approved","OW510"
"2023-05-18 20:00",2.49403957499313,"Approved","OW510"
"2023-05-18 21:00",2.50203698874443,"Approved","OW510"
"2023-05-18 22:00",2.51203440249573,"Approved","OW510"
"2023-05-18 23:00",2.52803181624703,"Approved","OW510"
"2023-05-19 00:00",2.54902922999833,"Approved","OW510"
"2023-05-19 01:00",2.58102664374963,"Approved","OW510"
"2023-05-19 02:00",2.57202405750093,"Approved","OW510"
"2023-05-19 03:00",2.59702147125223,"Approved","OW510"
"2023-05-19 04:00",2.60801888500353,"Approved","OW510"
"2023-05-19 05:00",2.60901629875483,"Approved","OW510"
"2023-05-19 06:00",2.63601371250613,"Approved","OW510"
"2023-05-19 07:00",2.63601112625743,"Approved","OW510"
"2023-05-19 08:00",2.64800854000873,"Approved","OW510"
"2023-05-19 09:00",2.65800595376003,"Approved","OW510"
"2023-05-19 10:00",2.66500336751133,"Approved","OW510"
"2023-05-19 11:00",2.66900078126263,"Approved","OW510"
"2023-05-19 12:00",2.67099819501393,"Approved","OW510"
"2023-05-19 13:00",2.66499560876523,"Approved","OW510"
"2023-05-19 14:00",2.65499302251653,"Approved","OW510"
"2023-05-19 15:00",2.64799043626783,"Approved","OW510"
"2023-05-19 16:00",2.64198785001913,"Approved","OW510"
"2023-05-19 17:00",2.63698526377043,"Approved","OW510"
"2023-05-19 18:00",2.63698267752173,"Approved","OW510"
"2023-05-19 19:00",2.64498009127303,"Approved","OW510"
"2023-05-19 20:00",2.65497750502433,"Approved","OW510"
"2023-05-19 21:00",2.66397491877563,"Approved","OW510"
"2023-05-19 22:00",2.66897233252693,"Approved","OW510"
"2023-05-19 23:00",2.67996974627823,"Approved","OW510"
"2023-05-20 00:00",2.69196716002953,"Approved","OW510"
"2023-05-20 01:00",2.69996457378083,"Approved","OW510"
"2023-05-20 02:00",2.71396198753213,"Approved","OW510"
"2023-05-20 03:00",2.72695940128343,"Approved","OW510"
"2023-05-20 04:00",2.73895681503473,"Approved","OW510"
"2023-05-20 05:00",2.74695422878603,"Approved","OW510"
"2023-05-20 06:00",2.75495164253733,"Approved","OW510"
"2023-05-20 07:00",2.76494905628863,"Approved","OW510"
"2023-05-20 08:00",2.76894647003993,"Approved","OW510"
"2023-05-20 09:00",2.77594388379123,"Approved","OW510"
"2023-05-20 10:00",2.78194129754253,"Approved","OW510"
"2023-05-20 11:00",2.78593871129382,"Approved","OW510"
"2023-05-20 12:00",2.78593612504512,"Approved","OW510"
"2023-05-20 13:00",2.77593353879642,"Approved","OW510"
"2023-05-20 14:00",2.76793095254772,"Approved","OW510"
"2023-05-20 15:00",2.75892836629902,"Approved","OW510"
"2023-05-20 16:00",2.74692578005032,"Approved","OW510"
"2023-05-20 17:00",2.74092319380162,"Approved","OW510"
"2023-05-20 18:00",2.73792060755292,"Approved","OW510"
"2023-05-20 19:00",2.73291802130422,"Approved","OW510"
"2023-05-20 20:00",2.73691543505552,"Approved","OW510"
"2023-05-20 21:00",2.74591284880682,"Approved","OW510"
"2023-05-20 22:00",2.76691026255812,"Approved","OW510"
"2023-05-20 23:00",2.77190767630942,"Approved","OW510"
"2023-05-21 00:00",2.77490509006072,"Approved","OW510"
"2023-05-21 01:00",2.79390250381202,"Approved","OW510"
"2023-05-21 02:00",2.80189991756332,"Approved","OW510"
"2023-05-21 03:00",2.80789733131462,"Approved","OW510"
"2023-05-21 04:00",2.82089474506592,"Approved","OW510"
"2023-05-21 05:00",2.82389215881722,"Approved","OW510"
"2023-05-21 06:00",2.82988957256852,"Approved","OW510"
"2023-05-21 07:00",2.83588698631982,"Approved","OW510"
"2023-05-21 08:00",2.83988440007112,"Approved","OW510"
"2023-05-21 09:00",2.84888181382242,"Approved","OW510"
"2023-05-21 10:00",2.85887922757372,"Approved","OW510"
"2023-05-21 11:00",2.85787664132502,"Approved","OW510"
"2023-05-21 12:00",2.86887405507632,"Approved","OW510"
"2023-05-21 13:00",2.87787146882762,"Approved","OW510"
"2023-05-21 14:00",2.89086888257892,"Approved","OW510"
"2023-05-21 15:00",2.87386629633022,"Approved","OW510"
"2023-05-21 16:00",2.85286371008152,"Approved","OW510"
"2023-05-21 17:00",2.86186112383282,"Approved","OW510"
"2023-05-21 18:00",2.85785853758412,"Approved","OW510"
"2023-05-21 19:00",2.85785595133542,"Approved","OW510"
"2023-05-21 20:00",2.86885336508672,"Approved","OW510"
"2023-05-21 21:00",2.87885077883802,"Approved","OW510"
"2023-05-21 22:00",2.88184819258932,"Approved","OW510"
"2023-05-21 23:00",2.89584560634062,"Approved","OW510"
"2023-05-22 00:00",2.89184302009192,"Approved","OW510"
"2023-05-22 01:00",2.90284043384322,"Approved","OW510"
"2023-05-22 02:00",2.91083784759452,"Approved","OW510"
"2023-05-22 03:00",2.91683526134582,"Approved","OW510"
"2023-05-22 04:00",2.92483267509712,"Approved","OW510"
"2023-05-22 05:00",2.92183008884842,"Approved","OW510"
"2023-05-22 06:00",2.93082750259972,"Approved","OW510"
"2023-05-22 07:00",2.93382491635102,"Approved","OW510"
"2023-05-22 08:00",2.93282233010232,"Approved","OW510"
"2023-05-22 09:00",2.94481974385362,"Approved","OW510"
"2023-05-22 10:00",2.94081715760492,"Approved","OW510"
"2023-05-22 11:00",2.94381457135622,"Approved","OW510"
"2023-05-22 12:00",2.94681198510752,"Approved","OW510"
"2023-05-22 13:00",2.94880939885882,"Approved","OW510"
"2023-05-22 14:00",2.95580681261012,"Approved","OW510"
"2023-05-22 15:00",2.95780422636142,"Approved","OW510"
"2023-05-22 16:00",2.96380164011272,"Approved","OW510"
"2023-05-22 17:00",2.97379905386402,"Approved","OW510"
"2023-05-22 18:00",2.97979646761532,"Approved","OW510"